Theta_e
308 308 308 309 309 308 308 308 308 309 308 308 309 308 309 304 304 308 308 311 309 308 311 311 310 310 310 311 315 322 325 325 324 325 327 326 327 325 324 325 328 329 330 338 337
305 305 305 307 307 307 307 308 308 308 308 308 308 308 306 303 309 316 314 310 308 308 309 310 311 310 310 311 313 322 324 324 321 321 322 325 325 326 325 325 326 330 335 338 336
302 301 302 302 303 305 306 307 308 308 308 308 307 307 301 306 309 313 314 310 309 308 308 309 310 310 310 310 309 318 322 320 320 320 321 321 320 326 326 325 325 327 334 337 336
300 301 301 301 302 303 306 307 308 308 308 308 307 307 303 308 307 306 305 312 311 307 307 308 309 310 311 310 309 308 311 317 319 319 320 318 318 319 325 325 325 324 332 336 334
300 300 300 300 300 302 302 304 307 308 308 307 307 306 307 307 307 306 305 304 305 307 307 308 309 310 310 309 309 309 309 310 313 317 319 317 318 320 322 323 322 324 333 336 334
300 300 299 299 299 299 299 300 305 306 306 308 308 306 307 307 305 306 306 306 309 312 312 310 312 313 312 309 309 308 308 309 311 314 318 321 319 320 320 320 320 324 328 334 335
299 299 298 298 298 298 298 299 304 302 302 305 307 306 307 307 306 307 308 308 306 310 311 312 312 312 312 313 311 311 311 310 310 312 315 318 321 320 318 319 322 324 326 329 333
300 299 298 298 297 297 297 299 301 301 302 302 305 306 307 306 306 309 307 309 308 307 307 310 310 310 310 311 311 311 311 311 310 310 314 316 322 319 318 318 319 321 320 327 330
298 298 298 298 297 296 297 300 301 301 302 306 307 306 308 306 307 306 307 308 310 309 307 306 306 308 310 310 311 311 312 311 309 310 310 315 316 318 318 318 318 319 319 324 329
297 296 296 295 296 296 299 303 302 305 304 307 307 308 308 307 306 306 305 308 310 310 310 308 308 307 307 309 311 310 310 309 311 308 310 310 315 317 317 318 318 318 319 320 329
297 296 296 295 295 298 303 305 305 308 304 306 306 307 307 307 307 306 307 309 309 310 310 309 307 308 307 307 308 310 310 311 311 312 312 311 314 318 317 316 315 317 318 319 324
297 297 297 296 297 304 304 304 303 302 305 304 305 306 307 307 309 307 307 309 309 310 309 309 310 308 307 306 306 307 308 312 311 312 317 316 315 316 316 316 316 315 316 318 322
298 297 297 297 300 304 304 304 303 303 305 307 306 307 307 308 308 309 308 308 309 309 309 309 308 307 307 308 308 307 307 309 314 314 315 318 317 316 316 316 315 316 317 317 319
296 296 299 297 303 303 303 303 303 302 309 307 308 309 307 307 310 309 309 307 308 309 309 309 307 307 308 308 308 309 307 310 314 315 320 314 314 315 315 316 317 316 316 315 317
295 294 299 299 302 303 303 303 303 304 317 305 305 304 306 308 308 310 308 308 309 309 310 308 310 308 308 309 308 310 308 310 313 314 314 316 322 313 313 315 317 316 316 315 315
296 294 299 304 302 302 301 303 304 311 310 302 304 304 306 307 308 308 308 306 305 307 306 307 307 308 308 308 309 309 312 312 314 314 316 313 316 314 315 315 315 311 310 314 314
296 295 299 302 304 301 302 304 308 312 303 303 303 304 306 307 308 307 309 310 310 311 308 309 308 307 308 311 310 311 313 314 312 311 312 312 311 312 313 308 307 306 307 306 309
297 296 299 301 300 300 303 305 304 300 303 303 303 304 306 306 306 307 310 309 308 307 309 312 313 310 308 309 312 310 312 314 314 314 310 314 314 313 308 306 306 308 307 307 307
297 300 301 302 299 300 305 306 306 304 304 304 305 305 306 305 306 307 309 309 310 308 312 312 312 308 310 308 309 312 312 311 315 305 312 312 312 312 308 306 307 309 309 308 308
301 300 301 300 300 302 301 305 301 302 302 303 304 303 303 304 304 305 307 308 307 308 307 310 311 308 308 309 309 309 309 313 314 308 309 307 310 308 306 307 307 309 308 308 308
300 301 301 300 301 299 303 302 299 299 301 303 303 303 303 304 303 304 307 306 304 306 307 309 310 311 310 311 312 310 309 310 310 310 311 311 305 305 305 305 307 308 308 308 307
300 299 300 300 301 297 301 296 298 300 302 303 302 303 303 303 302 304 305 305 304 305 309 309 309 309 309 309 308 310 311 310 310 310 308 307 307 305 304 305 308 308 307 305 304
295 298 299 302 302 301 294 296 299 299 301 301 302 303 303 302 301 303 304 303 302 305 305 308 310 308 310 308 307 308 310 310 309 308 311 312 307 305 304 306 307 305 304 303 302
295 298 299 300 300 301 298 298 297 299 300 300 301 301 301 301 302 303 302 303 302 305 305 305 308 312 311 309 310 308 308 308 310 310 310 310 310 308 304 306 306 304 303 302 302
294 298 297 297 296 301 301 298 300 298 299 301 301 302 301 299 300 300 301 301 302 305 302 304 303 307 306 309 311 311 310 308 308 309 310 310 311 309 304 305 307 304 303 303 302
295 296 296 296 298 300 301 297 300 300 299 300 297 301 301 299 300 300 300 300 301 302 302 301 301 303 301 306 305 306 308 309 309 307 307 307 307 307 304 305 306 305 303 303 302
297 297 300 297 297 299 300 300 300 300 300 300 300 300 300 301 300 300 300 301 301 302 300 301 298 294 297 304 304 300 306 304 304 305 306 308 306 305 304 305 306 304 304 303 302
Wind_Speed
6 7 7 7 8 10 11 13 13 14 15 17 18 20 22 22 22 11 10 5 10 14 17 17 16 14 7 6 8 6 4 10 14 15 13 9 6 5 4 3 2 4 6 14 28
5 6 7 8 9 10 11 13 14 14 15 17 19 21 24 22 16 16 8 5 6 20 20 19 14 15 5 7 5 6 6 12 12 11 9 7 7 4 3 5 4 7 12 20 24
5 6 8 8 8 10 11 12 13 14 15 17 19 21 25 18 3 9 9 7 12 22 19 16 15 9 6 8 8 8 15 10 15 13 11 5 7 3 5 8 7 10 15 14 17
5 6 7 7 9 10 12 13 13 14 14 16 19 22 21 10 1 8 11 13 18 20 17 15 11 9 8 8 9 16 17 14 13 17 6 3 4 11 8 9 1 7 21 17 15
5 6 7 8 9 11 12 13 14 14 14 14 16 18 11 5 5 10 18 17 16 15 13 10 11 10 7 10 15 16 14 16 15 17 15 7 9 8 10 9 7 7 13 15 13
5 6 7 9 10 11 13 14 15 14 15 15 14 12 6 4 4 14 15 16 11 13 12 7 6 10 8 10 9 14 20 18 19 19 15 16 7 7 7 5 4 4 7 13 14
6 7 8 9 11 12 13 14 14 15 15 12 8 5 3 5 11 12 11 10 9 8 9 8 9 7 11 9 9 12 14 17 16 19 19 13 15 22 13 11 5 8 6 8 13
5 7 8 9 11 12 14 15 15 10 6 7 3 1 3 4 8 8 12 10 6 9 15 12 10 9 7 8 12 15 15 14 7 16 19 11 23 13 15 16 13 10 7 8 9
5 7 9 10 11 13 14 15 9 5 5 7 3 2 3 7 8 14 10 11 11 6 7 12 11 8 7 8 10 9 13 16 18 15 17 15 27 15 18 16 15 10 12 8 8
4 6 8 11 11 12 14 8 4 5 2 1 1 3 1 8 19 13 10 7 4 8 7 4 4 5 6 7 7 12 14 15 15 16 15 22 22 16 14 17 17 14 10 10 12
4 6 8 9 12 11 16 2 2 2 6 4 4 3 4 16 6 6 4 6 3 4 3 3 4 7 11 12 13 17 22 20 17 21 15 19 18 13 13 5 6 7 8 9 10
4 5 7 10 6 11 9 6 4 1 3 2 4 5 7 6 4 9 6 4 4 7 7 2 8 13 13 14 14 15 16 18 17 23 11 14 9 14 13 7 7 8 9 7 11
3 6 7 7 5 10 14 8 3 1 2 1 1 2 3 5 4 7 7 7 7 8 9 7 9 10 12 11 14 16 15 15 15 22 6 9 9 9 9 11 9 7 4 4 10
2 5 6 2 4 3 5 4 5 1 3 3 2 2 3 3 2 9 9 5 4 5 9 7 6 6 9 15 13 17 15 11 12 13 5 8 4 10 10 8 6 7 7 6 4
2 4 6 3 2 2 3 5 1 2 2 6 2 2 4 5 6 3 7 3 4 8 2 3 6 5 7 7 9 10 12 14 13 14 6 4 6 7 16 17 12 10 9 8 7
1 3 4 3 6 3 4 3 1 2 2 3 3 5 8 5 3 4 2 4 2 3 4 15 7 5 5 9 11 8 11 12 14 12 4 10 8 6 3 9 6 7 7 4 4
2 2 1 2 3 3 3 3 1 2 2 4 3 5 7 7 3 9 4 5 4 6 4 3 2 4 5 7 3 2 4 2 2 1 5 4 2 8 5 7 6 7 7 7 6
3 2 2 3 2 2 0 1 1 1 1 2 4 7 4 7 5 8 6 6 4 4 4 7 2 4 6 3 5 8 5 2 3 1 3 1 3 4 6 8 8 8 6 6 7
2 0 2 1 3 3 0 1 1 3 5 1 1 3 4 4 5 5 5 6 5 4 5 5 2 3 3 4 4 7 2 1 3 4 1 4 6 2 6 8 6 6 7 6 6
3 3 3 2 3 3 2 1 1 2 3 2 2 1 0 4 4 5 6 2 6 2 0 2 5 0 4 4 6 7 8 3 2 4 3 4 3 5 9 6 5 5 6 6 6
5 1 1 3 6 5 1 2 2 2 1 1 1 1 1 2 3 2 2 3 8 8 4 4 4 1 2 3 2 2 4 3 3 1 3 4 2 4 6 6 5 7 6 6 6
5 2 1 5 3 2 1 1 3 2 1 1 1 1 2 4 2 2 4 3 8 9 6 4 4 4 4 5 2 2 4 4 1 4 4 1 3 6 5 6 8 7 7 6 6
4 2 1 1 3 3 2 0 2 1 3 2 2 1 4 2 3 4 4 5 8 7 6 7 3 5 1 2 2 3 4 9 5 3 3 2 3 3 4 6 6 8 6 6 7
4 3 0 0 1 4 4 2 2 2 2 1 2 1 2 3 4 2 5 4 7 4 2 5 3 3 4 10 9 5 9 8 5 2 4 3 9 9 7 5 6 6 7 7 7
1 2 1 4 4 3 3 7 4 4 2 1 2 4 1 1 4 2 4 6 6 5 7 3 4 7 11 9 5 5 10 9 7 6 5 4 2 9 5 2 4 6 6 7 7
4 3 2 2 6 5 6 4 6 5 5 3 2 3 2 3 3 4 7 3 3 4 4 4 3 6 5 5 7 7 7 8 8 7 7 8 7 4 3 2 4 7 6 7 7
3 0 1 7 7 4 4 6 7 6 5 1 5 2 3 4 4 5 6 6 6 5 2 3 4 4 5 6 8 4 3 5 6 8 7 6 6 2 2 3 5 6 5 5 6
Wind_Direction
21 20 15 11 9 10 9 5 2 0 359 353 346 343 339 340 341 345 32 26 5 359 355 355 351 335 283 254 257 295 262 247 244 245 260 274 270 305 52 302 5 87 46 112 132
13 16 15 7 2 3 4 2 359 357 355 350 343 342 342 342 334 49 33 6 31 8 358 356 350 333 310 277 231 208 225 238 257 264 265 242 285 316 288 234 212 101 90 118 134
14 6 8 5 360 353 352 355 353 352 352 347 343 341 344 347 302 39 358 8 345 350 345 331 322 324 286 279 265 225 241 274 275 269 282 256 298 268 280 283 234 184 150 146 155
14 10 6 3 355 349 346 346 346 345 348 343 340 341 350 350 123 22 340 324 321 339 337 335 338 320 308 310 296 263 273 267 272 281 282 262 298 274 225 250 64 27 156 150 170
14 9 2 0 354 347 345 344 342 340 336 337 334 342 359 348 51 6 357 346 345 342 329 319 320 327 310 328 324 301 289 285 279 269 276 241 245 265 257 219 301 99 144 154 166
3 356 357 350 345 342 340 342 339 331 326 325 328 344 352 23 9 347 343 342 347 344 332 320 345 332 294 282 278 311 304 302 302 301 269 263 254 268 259 249 261 180 177 162 175
348 345 347 341 338 337 339 338 329 325 322 321 325 348 306 296 342 345 350 335 303 294 313 3 358 329 331 311 287 316 302 298 280 288 276 269 257 236 250 277 198 156 238 188 179
341 340 341 340 336 334 337 333 326 333 358 330 25 65 317 316 348 2 349 340 330 279 261 278 291 301 274 266 289 288 279 280 287 250 269 260 253 246 231 243 229 184 226 189 191
356 351 345 341 339 336 337 332 350 4 24 77 89 316 64 320 344 324 310 317 312 281 270 258 267 256 286 285 290 248 265 268 279 256 255 229 257 254 265 230 221 223 200 195 171
3 360 351 345 344 341 345 357 15 51 25 140 92 253 296 341 336 311 293 273 310 310 256 230 241 243 267 256 261 277 278 280 290 262 248 248 242 239 282 227 216 223 207 195 159
346 352 347 346 344 356 12 356 318 162 32 11 340 306 320 334 320 346 341 291 242 249 290 302 266 264 271 267 291 314 301 291 292 294 295 249 240 222 235 245 257 224 215 183 166
331 346 351 346 14 36 33 66 63 356 317 306 296 291 294 341 307 51 349 324 328 317 316 312 273 277 293 292 281 272 287 286 291 277 346 306 257 212 235 201 199 224 261 190 154
336 351 1 356 79 57 65 70 25 7 266 266 31 315 348 331 350 337 355 326 319 323 321 281 263 280 292 284 282 273 271 272 278 298 300 276 297 279 255 228 191 206 243 315 179
345 6 9 81 73 76 68 28 349 182 102 3 154 126 267 264 291 35 13 6 328 323 334 290 326 329 309 273 265 282 285 255 266 282 269 6 271 229 252 262 221 194 207 256 302
14 8 12 47 84 48 69 358 55 224 131 354 33 305 258 50 310 55 18 33 295 301 323 312 345 338 295 275 319 271 300 277 263 279 327 214 257 239 206 222 219 212 191 202 207
230 356 15 62 75 80 352 2 193 227 115 332 315 355 349 72 43 322 296 81 101 298 250 268 278 271 252 285 266 265 299 259 250 238 277 250 247 279 158 182 201 96 60 117 137
240 320 24 53 77 330 8 208 309 54 242 330 337 337 313 23 5 5 330 24 10 335 351 267 217 246 240 278 106 146 283 307 330 31 230 2 263 256 90 70 83 78 66 50 81
219 318 303 127 57 15 94 284 89 265 120 39 318 303 61 25 343 350 351 9 79 349 300 332 330 353 341 320 310 292 261 293 276 221 247 342 236 253 75 66 81 69 75 77 77
195 216 175 313 75 52 271 279 83 150 135 44 241 45 11 2 18 344 27 17 25 347 349 321 333 312 343 322 339 334 221 355 300 223 331 192 242 124 69 60 61 71 78 78 82
175 189 126 329 82 82 69 184 242 61 142 180 79 143 316 356 36 27 8 54 9 15 185 300 291 15 301 309 254 233 327 340 232 330 313 337 49 38 17 41 70 79 78 78 89
181 184 157 126 89 57 250 181 259 153 264 222 133 190 338 8 348 177 308 264 28 348 341 269 265 343 216 209 330 292 275 273 292 335 330 330 41 357 343 355 94 79 89 98 92
129 130 208 137 66 98 174 102 295 163 164 274 306 267 289 350 343 299 15 57 20 356 355 314 301 295 306 131 162 216 294 312 296 332 350 200 293 339 13 3 85 82 70 65 83
121 150 89 165 155 159 160 226 297 197 211 191 229 265 12 304 344 313 18 36 26 25 11 343 319 309 108 116 197 277 263 254 290 290 267 347 308 33 59 57 83 97 92 81 74
128 132 108 314 191 140 151 162 163 221 320 6 328 335 263 272 224 272 315 19 343 58 326 337 309 318 333 311 298 313 331 325 258 309 300 261 317 345 27 56 91 101 107 105 104
69 187 198 163 203 197 156 156 144 159 245 179 314 274 211 342 317 283 22 352 327 53 0 66 307 336 304 312 344 320 301 303 304 266 232 272 298 306 33 79 128 131 114 100 104
147 150 262 92 135 156 170 223 162 132 145 202 161 175 210 168 285 314 327 319 275 4 12 8 298 320 286 263 323 280 286 304 301 281 289 294 289 259 55 72 123 131 131 130 117
162 251 201 139 151 150 183 167 192 139 208 120 192 196 250 278 334 323 299 284 279 300 326 337 352 341 277 334 322 22 339 327 333 326 335 311 292 311 183 169 149 128 139 124 117